Weather reports worldwide

Advertisment
Lille, France (7015): temperature & dewpoint: 13.03.2019 09:00:00 - 19.03.2019 09:00:00 (CET)Lille, France (7015): temperature 5cm: 13.03.2019 09:00:00 - 19.03.2019 09:00:00 (CET)Lille, France (7015): temperature -20cm & temperature -100cm: 13.03.2019 09:00:00 - 19.03.2019 09:00:00 (CET)Lille, France (7015): wind speed & gusts: 13.03.2019 09:00:00 - 19.03.2019 09:00:00 (CET)Lille, France (7015): wind direction: 13.03.2019 09:00:00 - 19.03.2019 09:00:00 (CET)Lille, France (7015): reduced air pressure: 13.03.2019 09:00:00 - 19.03.2019 09:00:00 (CET)Lille, France (7015): visibility: 13.03.2019 09:00:00 - 19.03.2019 09:00:00 (CET)Lille, France (7015): precipitation: 13.03.2019 09:00:00 - 19.03.2019 09:00:00 (CET)
Date & Time tt [°C] td [°C] tt 5cm [°C] tt -20cm [°C] tt -100cm [°C] ff [km/h] ff [kn] fx [km/h] fx [kn] dd ppp [hPa] vv [km] rr [mm]
19.03.2019 09:00:00 4,4 3,8 2,7 5,1 8,2 3 2 7 4 S 1028,2 7 0,0
19.03.2019 08:00:00 1,4 1,3 -1,5 5,2 8,2 3 1 6 3 S 1027,9 4,1 0,0
19.03.2019 07:00:00 0,4 0,1 -3,1 5,4 8,2 5 3 9 5 SE 1027,3 0,7 0,0
19.03.2019 06:00:00 0,5 0,2 -2,6 5,5 8,2 0 0 4 2 N 1027,2 1,4 0,0
19.03.2019 05:00:00 0,3 -0,1 -3,2 5,7 8,2 0 0 3 2 N 1026,8 2,6 0,0
19.03.2019 04:00:00 0,5 -0,2 -2,6 5,9 8,3 2 1 4 2 NE 1026,6 6 0,0
19.03.2019 03:00:00 1,1 0,2 -2,4 6,1 8,2 2 1 3 2 ESE 1026,0 7 0,0
19.03.2019 02:00:00 1,6 0,6 -1,9 6,4 8,2 3 2 4 2 SE 1026,0 8 0,0
19.03.2019 01:00:00 1,7 0,2 -1,6 6,6 8,2 2 1 4 2 SW 1025,8 12 0,0
19.03.2019 00:00:00 2,2 0,9 -1,5 6,9 8,2 3 2 5 3 E 1025,5 18 0,0
18.03.2019 23:00:00 3,1 0,8 -0,1 7,2 8,2 3 2 11 6 SSE 1025,1 18 0,0
18.03.2019 22:00:00 3,7 1,2 -0,4 7,5 8,2 5 3 12 6 WSW 1024,9 28 0,0
18.03.2019 21:00:00 4,0 0,9 -0,1 7,8 8,2 0 0 10 5 N 1024,3 37 0,0
18.03.2019 20:00:00 5,5 1,0 1,6 8,2 8,2 5 3 13 7 NW 1023,8 48 0,0
18.03.2019 19:00:00 7,3 0,7 4,7 8,5 8,2 7 4 27 15 NW 1023,0 59 0,0
18.03.2019 18:00:00 9,2 1,1 9,2 8,6 8,2 18 10 29 16 NW 1022,3 42 0,0
18.03.2019 17:00:00 9,7 0,6 10,0 8,6 8,2 19 10 35 19 NNW 1021,8 33 0,0
18.03.2019 16:00:00 10,0 1,6 11,0 8,3 8,2 25 14 39 21 WNW 1021,4 30 0,0
18.03.2019 15:00:00 9,6 3,6 10,3 8,0 8,2 19 11 35 19 WNW 1021,2 35 0,0
18.03.2019 14:00:00 9,5 4,3 10,9 7,7 8,2 20 11 33 18 WNW 1021,1 40 0,0
18.03.2019 13:00:00 8,8 4,0 9,6 7,2 8,2 19 10 36 20 W 1021,1 40 0,0
18.03.2019 12:00:00 8,6 5,0 7,3 6,8 8,2 12 6 26 14 W 1020,9 29 0,2
18.03.2019 11:00:00 8,6 4,6 9,4 6,3 8,2 16 9 26 14 W 1020,5 28 0,0
18.03.2019 10:00:00 7,4 5,2 7,9 5,9 8,2 16 9 24 13 W 1020,1 26 0,0
18.03.2019 09:00:00 5,6 4,1 4,6 5,9 8,2 15 8 20 11 W 1019,2 25 0,0
18.03.2019 08:00:00 3,1 2,7 -0,1 6,0 8,2 13 7 17 9 W 1018,7 15 0,0
18.03.2019 07:00:00 1,6 0,9 -0,2 6,1 8,2 12 6 15 8 W 1017,8 19 0,0
18.03.2019 06:00:00 2,6 1,9 1,2 6,2 8,2 12 6 16 9 W 1017,1 29 0,0
18.03.2019 05:00:00 2,7 2,0 0,9 6,3 8,2 8 4 11 6 SW 1016,4 25 0,0
18.03.2019 04:00:00 2,1 1,1 0,9 6,5 8,2 10 5 13 7 WSW 1015,8 33 0,0
18.03.2019 03:00:00 2,3 1,1 0,6 6,6 8,2 8 4 12 6 SW 1015,3 38 0,0
18.03.2019 02:00:00 2,1 0,8 1,5 6,8 8,2 10 6 18 10 SSW 1014,8 50 0,0
18.03.2019 01:00:00 2,6 1,4 1,7 7,0 8,2 10 5 21 12 SSW 1014,2 58 0,0
18.03.2019 00:00:00 2,6 1,3 1,8 7,3 8,2 13 7 17 9 S 1013,8 60 0,0
17.03.2019 23:00:00 3,0 1,8 2,1 7,5 8,2 12 6 23 12 SSW 1013,3 52 0,0
17.03.2019 22:00:00 3,3 2,1 2,7 7,8 8,2 16 9 26 14 SW 1012,9 59 0,2
17.03.2019 21:00:00 3,3 2,1 2,3 8,1 8,2 26 14 54 29 W 1012,7 5 2,2
17.03.2019 20:00:00 6,9 1,4 6,0 8,5 8,2 19 10 35 19 WSW 1011,2 57 0,0
17.03.2019 19:00:00 7,2 -0,3 6,4 8,8 8,2 26 14 51 28 WSW 1010,4 60 0,0
17.03.2019 18:00:00 8,5 0,0 9,1 9,0 8,2 36 20 56 31 W 1009,5 14 0,0
17.03.2019 17:00:00 9,2 0,1 8,5 9,2 8,2 36 20 52 28 W 1008,6 25 0,0
17.03.2019 16:00:00 10,1 -0,7 9,2 9,1 8,1 37 20 56 31 WSW 1007,8 14 0,0
17.03.2019 15:00:00 10,3 0,6 5,8 8,9 8,1 34 19 52 28 WSW 1007,2 22 0,0
17.03.2019 14:00:00 9,7 0,6 9,7 8,7 8,1 31 17 54 29 W 1006,7 31 0,0
17.03.2019 13:00:00 9,0 1,9 9,5 8,5 8,1 34 18 51 28 W 1006,3 37 0,0
17.03.2019 12:00:00 9,7 2,1 10,5 8,1 8,1 33 18 54 29 W 1005,6 18 0,0
17.03.2019 11:00:00 8,3 1,4 7,7 8,0 8,1 33 18 53 28 W 1005,2 20 0,0
17.03.2019 10:00:00 8,5 2,5 8,7 7,9 8,1 35 19 50 27 W 1004,4 15 0,0
17.03.2019 09:00:00 7,7 3,9 6,2 8,0 8,1 28 15 45 25 W 1003,4 28 0,0
17.03.2019 08:00:00 6,6 3,9 5,9 8,2 8,1 23 13 37 20 WSW 1002,6 37 0,0
17.03.2019 07:00:00 7,0 4,8 6,1 8,4 8,1 21 11 39 21 WSW 1001,7 53 0,0
17.03.2019 06:00:00 7,6 5,1 6,6 8,5 8,1 23 12 56 30 WSW 1000,5 60 0,2
17.03.2019 05:00:00 8,0 6,3 7,3 8,5 8,1 32 17 56 30 WSW 1000,0 30 0,2
17.03.2019 04:00:00 8,6 6,7 7,7 8,6 8,1 36 19 61 33 SSW 999,1 9 0,2
17.03.2019 03:00:00 9,2 5,6 8,9 8,7 8,1 41 22 63 34 SSW 999,1 40 0,0
17.03.2019 02:00:00 9,6 4,8 9,1 8,8 8,1 42 23 72 39 SSW 999,5 45 0,0
17.03.2019 01:00:00 9,9 4,5 9,5 8,9 8,1 38 20 63 34 SSW 1000,2 59 0,0
17.03.2019 00:00:00 10,4 4,1 9,8 9,1 8,1 36 20 62 33 SSW 1001,0 59 0,0
16.03.2019 23:00:00 10,9 4,1 10,6 9,1 8,1 39 21 67 36 SSW 1002,4 60 0,0
16.03.2019 22:00:00 11,7 6,0 11,3 9,2 8,1 36 19 58 31 SSW 1002,5 60 0,0
16.03.2019 21:00:00 12,0 6,5 11,1 9,4 8,0 27 14 45 25 SSW 1003,0 60 0,0
16.03.2019 20:00:00 11,7 7,0 11,2 9,4 8,0 21 11 50 27 SW 1003,7 43 0,0
16.03.2019 19:00:00 12,8 7,0 12,4 9,5 8,0 32 17 48 26 SSW 1003,8 59 0,0
16.03.2019 18:00:00 13,0 7,0 12,7 9,5 8,0 28 15 51 28 SSW 1004,3 60 0,0
16.03.2019 17:00:00 13,1 6,4 13,3 9,4 8,0 34 18 55 30 SSW 1005,3 25 0,0
16.03.2019 16:00:00 12,8 5,9 12,3 9,2 8,0 34 18 65 35 SSW 1006,6 35 0,0
16.03.2019 15:00:00 11,8 5,6 11,7 9,1 8,0 34 19 68 37 SW 1007,8 35 0,0
16.03.2019 14:00:00 11,5 5,6 11,4 9,1 8,0 40 22 64 35 SW 1008,6 30 0,0
16.03.2019 13:00:00 11,2 5,5 11,1 9,1 8,0 42 23 68 37 SW 1009,5 21 0,0
16.03.2019 12:00:00 11,1 5,8 10,9 9,0 8,0 46 25 73 39 SW 1010,0 17 0,0
16.03.2019 11:00:00 10,9 7,0 10,7 8,9 8,0 36 19 63 34 SW 1010,4 32 0,0
16.03.2019 10:00:00 10,9 6,4 10,4 8,8 8,0 36 19 59 32 SW 1010,7 31 0,0
16.03.2019 09:00:00 10,3 6,6 10,1 8,9 8,0 36 20 55 30 SW 1011,2 49 0,0
16.03.2019 08:00:00 10,3 7,0 10,0 8,9 8,0 36 20 63 34 SW 1011,3 53 0,0
16.03.2019 07:00:00 10,4 7,3 9,0 8,9 8,0 35 19 60 33 SW 1011,7 60 0,0
16.03.2019 06:00:00 9,5 8,1 8,9 9,0 8,0 36 19 77 42 WSW 1011,9 16 0,0
16.03.2019 05:00:00 9,9 8,5 9,5 9,0 8,0 38 21 66 36 SW 1012,0 19 0,0
16.03.2019 04:00:00 10,1 8,7 9,7 9,0 8,0 39 21 64 35 SW 1011,9 20 0,0
16.03.2019 03:00:00 10,1 8,9 9,6 9,1 8,0 37 20 58 31 WSW 1012,4 20 0,0
16.03.2019 02:00:00 10,4 9,0 9,8 9,1 8,0 38 21 58 32 WSW 1012,9 52 0,0
16.03.2019 01:00:00 10,5 9,1 9,9 9,1 8,0 36 19 50 27 WSW 1013,0 60 0,0
16.03.2019 00:00:00 10,4 9,5 9,9 9,1 8,0 34 18 58 32 WSW 1013,1 20 0,2
15.03.2019 23:00:00 10,5 9,7 10,0 9,1 8,0 35 19 54 29 WSW 1012,6 8 0,4
15.03.2019 22:00:00 10,6 9,8 10,1 9,2 8,0 36 19 55 30 WSW 1012,4 5 1,0
15.03.2019 21:00:00 11,1 9,7 10,3 9,2 8,0 40 22 60 33 WSW 1011,9 10 0,0
15.03.2019 20:00:00 11,2 9,6 10,4 9,2 8,0 40 21 64 34 WSW 1011,2 4,7 0,0
15.03.2019 19:00:00 11,6 9,3 11,3 9,2 8,0 42 23 66 35 WSW 1010,7 15 0,0
15.03.2019 18:00:00 11,4 9,6 11,2 9,2 8,0 44 24 71 38 WSW 1009,7 18 0,0
15.03.2019 17:00:00 11,5 9,7 10,8 9,2 8,0 44 24 76 41 WSW 1009,6 17 0,0
15.03.2019 16:00:00 11,4 9,8 10,8 9,2 8,0 44 24 71 38 WSW 1009,6 12 0,0
15.03.2019 15:00:00 11,7 9,8 11,4 9,0 8,0 42 23 76 41 WSW 1009,5 12 0,0
15.03.2019 14:00:00 12,1 9,7 11,6 8,9 8,0 43 23 72 39 WSW 1009,5 20 0,0
15.03.2019 13:00:00 11,6 9,8 11,2 8,8 8,0 38 21 63 34 WSW 1009,4 16 0,0
15.03.2019 12:00:00 12,2 9,4 12,1 8,6 8,0 42 23 66 36 WSW 1009,3 25 0,0
15.03.2019 11:00:00 12,1 9,3 11,7 8,5 8,0 38 21 69 38 WSW 1008,8 20 0,0
15.03.2019 10:00:00 11,7 9,1 11,3 8,3 8,0 42 23 66 36 WSW 1008,3 23 0,0
15.03.2019 09:00:00 11,4 9,3 10,4 8,2 8,0 43 23 71 38 W 1007,3 19 0,0
15.03.2019 08:00:00 11,1 9,5 10,2 8,0 8,0 44 24 70 38 W 1007,1 12 0,0
15.03.2019 07:00:00 10,7 9,5 10,0 7,9 8,0 46 25 71 38 W 1006,8 14 1,0
15.03.2019 06:00:00 10,4 9,9 9,6 7,7 8,0 41 22 61 33 W 1006,5 2,2 4,5
15.03.2019 05:00:00 9,9 9,6 8,5 7,5 8,0 27 14 39 21 WSW 1006,8 3,5 3,6
15.03.2019 04:00:00 8,8 8,5 8,1 7,5 8,0 14 7 21 11 S 1007,6 3,4 1,2
15.03.2019 03:00:00 8,8 7,7 7,8 7,4 8,0 11 6 41 22 SW 1008,9 10 0,4
15.03.2019 02:00:00 9,1 6,7 7,8 7,4 8,0 27 15 46 25 WSW 1010,0 19 0,0
15.03.2019 01:00:00 8,2 5,7 6,2 7,6 8,0 19 10 25 14 SW 1010,0 28 0,0
15.03.2019 00:00:00 7,4 5,2 5,3 7,7 8,0 15 8 22 12 WSW 1010,1 24 0,0
14.03.2019 23:00:00 7,5 3,9 5,8 8,0 8,0 8 5 18 10 SW 1010,1 47 0,0
14.03.2019 22:00:00 8,1 4,7 7,0 8,2 8,0 16 8 31 17 W 1009,4 40 0,0
14.03.2019 21:00:00 8,6 6,6 7,7 8,4 8,0 16 8 25 14 W 1008,8 19 0,0
14.03.2019 20:00:00 9,5 7,4 8,5 8,6 8,0 17 9 26 14 W 1007,7 19 0,0
14.03.2019 19:00:00 10,0 7,2 8,7 8,7 8,0 17 9 59 32 W 1006,5 32 0,0
14.03.2019 18:00:00 10,7 7,9 9,8 8,6 8,0 29 16 58 32 W 1005,2 9 0,8
14.03.2019 17:00:00 12,0 7,9 12,2 8,4 8,0 32 17 66 35 W 1003,9 31 0,0
14.03.2019 16:00:00 12,4 8,1 10,1 8,0 8,0 33 18 59 32 W 1002,8 13 0,0
14.03.2019 15:00:00 9,6 8,0 7,2 7,8 8,0 49 27 87 47 W 1001,9 2,5 6,3
14.03.2019 14:00:00 10,7 9,1 10,0 7,6 8,0 48 26 74 40 W 1001,7 7 0,2
14.03.2019 13:00:00 10,5 8,4 9,0 7,4 8,0 45 24 74 40 WSW 1002,1 17 0,0
14.03.2019 12:00:00 9,3 8,2 8,5 7,2 8,0 40 22 69 37 WSW 1002,4 11 1,6
14.03.2019 11:00:00 8,9 8,0 7,8 7,0 8,0 42 23 64 35 WSW 1003,0 2,4 2,6
14.03.2019 10:00:00 8,4 7,2 6,9 6,9 8,0 39 21 56 30 SW 1004,0 4,5 2,7
14.03.2019 09:00:00 7,4 6,2 6,5 6,8 8,1 32 18 51 28 SW 1005,6 9 2,0
14.03.2019 08:00:00 7,1 5,7 6,5 6,8 8,0 27 15 46 25 SW 1007,4 8 1,8
14.03.2019 07:00:00 7,2 6,0 6,4 6,7 8,0 26 14 44 24 SW 1008,3 7 0,8
14.03.2019 06:00:00 7,0 5,6 6,1 6,7 8,1 22 12 40 22 SW 1009,8 11 0,2
14.03.2019 05:00:00 6,9 5,4 6,1 6,7 8,1 24 13 39 21 SW 1011,1 15 0,0
14.03.2019 04:00:00 7,1 4,2 6,1 6,7 8,0 22 12 31 17 WSW 1012,2 40 0,0
14.03.2019 03:00:00 6,7 3,8 5,6 6,8 8,0 19 11 30 16 SW 1013,0 31 0,0
14.03.2019 02:00:00 6,9 3,9 6,0 6,9 8,1 22 12 37 20 WSW 1013,6 31 0,0
14.03.2019 01:00:00 6,9 3,5 5,9 7,0 8,0 22 12 35 19 WSW 1013,8 30 0,0
14.03.2019 00:00:00 7,1 2,2 5,9 7,1 8,1 22 12 34 18 W 1013,7 44 0,0
13.03.2019 23:00:00 7,4 2,7 6,5 7,3 8,0 21 11 35 19 WSW 1013,6 40 0,0
13.03.2019 22:00:00 8,0 3,8 6,9 7,4 8,0 22 12 35 19 W 1013,4 45 0,0
13.03.2019 21:00:00 7,6 3,4 7,1 7,5 8,1 32 18 50 27 W 1012,8 57 0,0
13.03.2019 20:00:00 8,0 4,2 6,9 7,6 8,1 27 15 45 25 W 1012,0 39 0,0
13.03.2019 19:00:00 7,9 4,8 6,5 7,7 8,1 26 14 59 32 W 1011,2 46 1,4
13.03.2019 18:00:00 9,2 4,8 7,7 7,8 8,1 37 20 67 36 W 1010,0 19 0,0
13.03.2019 17:00:00 9,2 4,8 6,9 7,8 8,1 39 21 74 40 W 1009,0 23 0,4
13.03.2019 16:00:00 10,5 3,5 9,1 7,7 8,1 46 25 67 36 WSW 1008,4 21 0,0
13.03.2019 15:00:00 11,0 4,0 11,2 7,5 8,1 50 27 81 44 W 1008,3 14 0,0
13.03.2019 14:00:00 10,1 3,8 10,2 7,2 8,1 46 25 72 39 W 1008,0 17 0,0
13.03.2019 13:00:00 10,7 4,2 9,9 6,9 8,1 50 27 76 41 W 1007,7 13 0,0
13.03.2019 12:00:00 9,6 3,6 9,2 6,6 8,1 50 27 73 39 W 1007,4 20 0,0
13.03.2019 11:00:00 8,9 4,1 7,9 6,4 8,1 39 21 61 33 WSW 1007,0 7 0,0
13.03.2019 10:00:00 7,9 3,7 6,1 6,3 8,1 34 19 54 29 SW 1007,2 20 0,0
13.03.2019 09:00:00 6,7 4,0 5,5 6,1 8,1 31 17 44 24 SW 1006,8 23 0,0

tt = temperature
td = dewpoint
tt 5cm = temperature 5cm
tt -20cm = temperature -20cm
tt -100cm = temperature -100cm
ff = wind speed
fx = gusts
dd = wind direction
ppp = reduced air pressure
vv = visibility
rr = precipitation

Next stations